Вернуться в каталог

TITAN 3C TRANSTAGE DEB

LostHEO
NORAD 26524·DEBRIS·🇺🇸 United States

Запущен Dec 21, 1965 с Cape Canaveral Space Force Station

Loading…

Ближайшие Пролёты (ближайшие 24 часа)

TLE

УстаревшееSource: Space-Track

Эпоха: Jul 19, 2026, 01:46 UTC

1 26524U 65108AK  26200.07385361  .00000225  00000-0  48929-2 0  9995
2 26524  26.8269  75.6044 6682078 216.5490 350.4403  2.81769591 44751

Отслеживайте TITAN 3C TRANSTAGE DEB в реальном времени с AllMySat

Download on the App Store